Location: Calvin Observatory
(42.9309°N, 85.5886°W)
Time: 12:57:15
(UTC-05:00)

ISS - Visible Passes

Search period start: 09 February 2016 00:00
Search period end: 19 February 2016 00:00
Orbit: 399 x 408 km, 51.6° (Epoch: 09 February)

Date Brightness Start Highest point End Pass type
(mag) Time Alt. Az. Time Alt. Az. Time Alt. Az.
09 Feb -1.3 19:32:38 10° NW 19:34:56 18° N 19:35:40 16° NNE visible
10 Feb -1.3 18:39:36 10° WNW 18:42:03 19° N 18:44:31 10° NE visible
10 Feb -0.7 20:16:52 10° NW 20:17:49 15° NNW 20:17:49 15° NNW visible
11 Feb -1.4 19:24:09 10° NW 19:26:27 18° N 19:27:21 16° NNE visible
12 Feb -1.2 20:07:57 10° NW 20:09:31 20° NNW 20:09:31 20° NNW visible
13 Feb -1.6 19:15:21 10° NW 19:17:54 21° NNE 19:19:04 17° NE visible
13 Feb 0.1 20:51:32 10° NW 20:51:43 11° NW 20:51:43 11° NW visible
14 Feb -2.2 19:58:56 10° NW 20:01:19 35° N 20:01:19 35° N visible
15 Feb -2.2 19:06:19 10° NW 19:09:13 28° NNE 19:10:59 18° ENE visible
15 Feb -0.5 20:42:38 10° WNW 20:43:38 18° WNW 20:43:38 18° WNW visible
16 Feb -3.5 19:49:53 10° NW 19:53:09 84° NE 19:53:23 74° E visible
17 Feb -3.0 18:57:13 10° NW 19:00:23 48° NNE 19:03:14 12° ESE visible
17 Feb -0.9 20:34:02 10° W 20:35:54 21° WSW 20:35:54 21° WSW visible
18 Feb -2.3 19:40:58 10° WNW 19:44:04 42° SW 19:45:54 20° SSE visible
